863  
ASUS44 KMEG 130010  
RWRMEG  
MEMPHIS CWA HOURLY WEATHER ROUNDUP  
NATIONAL WEATHER SERVICE MEMPHIS TN  
700 PM CDT WED AUG 12 2020  
   
..WEST TENNESSEE
 
 
 
CITY SKY/WX TMP DP RH WIND PRES REMARKS
 
MEMPHIS INTL PTCLDY 88 71 57 SW6 29.95S HX 94  
6HR MIN TEMP: 86; 6HR MAX TEMP: 91;  
 
NWS MEMPHIS N/A 87 N/A N/A MISG N/A  
JACKSON TSTM 76 72 87 NE12 30.00R VSB 1  
6HR MIN TEMP: 77; 6HR MAX TEMP: 90; 6HR PCP: 0.18;  
 
COVINGTON CLOUDY 84 75 74 E8 29.95R HX 92  
SOMERVILLE CLEAR 88 73 62 CALM 29.95S HX 96  
BOLIVAR PTCLDY 86 75 70 CALM 29.96S HX 95  
LEXINGTON CLEAR 73 72 94 CALM 30.00R  
SELMER CLOUDY 79 73 83 NE10G17 29.98R HAZE  
DYERSBURG PTCLDY 79 75 87 NE5 29.99R  
6HR MIN TEMP: 79; 6HR MAX TEMP: 90;  
 
UNION CITY CLEAR 77 75 94 NE7 29.98R  
PARIS PTCLDY 75 73 94 E3 30.00S  
HUNTINGDON PTCLDY 77 72 83 SE3 30.00R  
 
   
..EASTERN ARKANSAS
 
 
 
CITY SKY/WX TMP DP RH WIND PRES REMARKS
 
JONESBORO PTCLDY 83 74 74 E3 29.96R  
6HR MIN TEMP: 82; 6HR MAX TEMP: 85;  
 
WEST MEMPHIS CLEAR 87 72 60 CALM 29.93F HX 93  
6HR MIN TEMP: 82; 6HR MAX TEMP: 89;  
 
BATESVILLE MOSUNNY 83 73 72 E9 29.96S  
6HR MIN TEMP: 74; 6HR MAX TEMP: 87; 6HR PCP: 0.01;  
 
NEWPORT SUNNY 80 75 84 NE5 29.96R  
6HR MIN TEMP: 73; 6HR MAX TEMP: 84;  
 
WALNUT RIDGE MOSUNNY 80 75 84 NE5 29.96S  
6HR MIN TEMP: 72; 6HR MAX TEMP: 81;  
 
BLYTHEVILLE MOCLDY 83 73 72 NE8 29.96R  
6HR MIN TEMP: 83; 6HR MAX TEMP: 90;  
 
SEARCY CLOUDY 86 72 62 SE6 29.95R HX 92  
6HR MIN TEMP: 82; 6HR MAX TEMP: 89;  
 
STUTTGART PTSUNNY 83 73 72 SE7 29.96S  
6HR MIN TEMP: 81; 6HR MAX TEMP: 88;  
 
PINE BLUFF SUNNY 82 72 71 E7 29.96S  
6HR MIN TEMP: 77; 6HR MAX TEMP: 84;  
 
MONTICELLO MOSUNNY 85 74 69 E7 29.95S HX 92  
6HR MIN TEMP: 80; 6HR MAX TEMP: 88;  
 
   
..NORTH MISSISSIPPI
 
 
 
CITY SKY/WX TMP DP RH WIND PRES REMARKS
 
TUPELO LGT RAIN 87 75 67 CALM 29.96S HX 96  
6HR MIN TEMP: 70; 6HR MAX TEMP: 94; 6HR PCP: TRACE;  
 
OXFORD CLOUDY 82 72 69 SE3 29.97F  
BATESVILLE PTCLDY 88 73 62 CALM 29.94F HX 96  
OLIVE BRANCH PTCLDY 88 75 66 S9 29.95S HX 97  
TUNICA PTCLDY 86 70 58 CALM 29.96R HX 90  
CLARKSDALE N/A 86 75 70 CALM 29.96S HX 95  
CORINTH CLOUDY 88 73 62 E3 29.97S HX 96  
GREENWOOD PTCLDY 86 74 67 SE9 29.95S HX 94  
6HR MIN TEMP: 82; 6HR MAX TEMP: 92; 6HR PCP: 0.03;  
 
COLUMBUS MOCLDY 80 73 79 SW6 29.97R  
6HR MIN TEMP: 80; 6HR MAX TEMP: 92;  
 
STARKVILLE CLOUDY 77 70 78 CALM 29.99S  
GOLDEN TRIANGL LGT RAIN 76 74 93 S5 29.99R  
6HR MIN TEMP: 75; 6HR MAX TEMP: 93;  
 
   
..SOUTHEAST MISSOURI
 
 
 
CITY SKY/WX TMP DP RH WIND PRES REMARKS
 
KENNETT PTCLDY 79 75 89 NE8 29.96R  
MALDEN CLOUDY 79 72 78 E5 29.99S  
WEST PLAINS MOSUNNY 80 70 71 E8 30.00S  
6HR MIN TEMP: 80; 6HR MAX TEMP: 84;  
 
POPLAR BLUFF CLOUDY 76 71 85 E5 29.98S  
6HR MIN TEMP: 75; 6HR MAX TEMP: 86;  
 
CAPE GIRARDEAU MOCLDY 78 71 79 E5 29.99S  
6HR MIN TEMP: 76; 6HR MAX TEMP: 86; 6HR PCP: 0.06;  
 
   
..NORTHWEST ALABAMA
 
 
 
CITY SKY/WX TMP DP RH WIND PRES REMARKS
 
MUSCLE SHOALS MOCLDY 84 69 60 CALM 29.99R  
6HR MIN TEMP: 82; 6HR MAX TEMP: 97;  
 
   
..MIDDLE TENNESSEE
 
 
 
CITY SKY/WX TMP DP RH WIND PRES REMARKS
 
NASHVILLE CLOUDY 78 73 84 CALM 30.04R  
6HR MIN TEMP: 76; 6HR MAX TEMP: 83; 6HR PCP: 0.09;  
 
DICKSON CLEAR 75 73 94 CALM 30.02S  
LAWRENCEBURG MOCLDY 72 70 94 NE9 30.03S FOG  
LEWISBURG MOCLDY 73 72 94 NE3 30.04R  
 
   
..WESTERN KENTUCKY
 
 
 
CITY SKY/WX TMP DP RH WIND PRES REMARKS
 
PADUCAH PTCLDY 79 72 79 CALM 29.99S  
6HR MIN TEMP: 76; 6HR MAX TEMP: 84; 6HR PCP: 0.02;  
 
FORT CAMPBELL CLOUDY 80 73 80 CALM 30.02R  
6HR MIN TEMP: 73; 6HR MAX TEMP: 81; 6HR PCP: 0.40;  
 
   
..CENTRAL ARKANSAS
 
 
 
CITY SKY/WX TMP DP RH WIND PRES REMARKS
 
LITTLE ROCK PTSUNNY 81 71 71 S7 29.95R  
 
SKY/WX REPORTED AS FAIR MEANS FEW OR NO CLOUDS BELOW  
12 THOUSAND FEET.  
 
 
 
CLICK HERE TO GO TO PREVIOUS BULLETINS.

The Nexlab TN Page
The Nexlab MS Page
The Nexlab AR Page Main Text Page